Location: Bellflower
(33.8817°N, 118.1170°W)
Time: 13:35:10
(UTC+00:00)

Cosmos 1745 Rocket - Pass Details

Date: 23 November 2020
Orbit: 952 x 999 km, 83.0° (Epoch: 22 January)

Event Time Altitude Azimuth Distance (km) Brightness Sun altitude
Rises 12:25:42 0° 188° (S) 3,643 7.0 -26.1°
Reaches altitude 10° 12:28:10 10° 190° (S) 2,707 6.3 -25.6°
Maximum altitude 12:34:23 78° 276° (W) 1,006 3.8 -24.3°
Drops below altitude 10° 12:40:43 10° 3° (N) 2,754 6.3 -23.0°
Sets 12:43:16 0° 5° (N) 3,712 7.0 -22.5°
